YMMLYMEN

Guest
Details From YMML - Melbourne Intl
To YMEN - Essendon
Flight Number -
Tags generated
Created
Modified
Stats Distance 5 nm / 9 km
Max Altitude 0 ft / 0 m
Waypoints 2
Social Downloads 1
Likes 0
Share VATSIM

Download

Looking for another format? Having issues loading an existing format? Contact us
Advertisement - Login to hide

Notes

Basic altitude profile: - Ascent Rate: 2500ft/min - Ascent Speed: 180kts - Cruise Altitude: 35000ft - Cruise Speed: 1200kts - Descent Rate: 1500ft/min - Descent Speed: 160kts Options: - Use NATs: yes - Use PACOTS: yes - Use low airways: yes - Use high airways: no

Route

YMML YMEN

ID Type Via Altitude Latitude Longitude Leg Dist Tot Dist Heading (true) Name
O YMML APT - 0 ft / 0 m -37.66530˚ 144.83667˚ - 0 nm - Melbourne Intl
O YMEN APT - 0 ft / 0 m -37.72869˚ 144.90240˚ 4 nm 4 nm 141° / 141° Essendon

Altitude Profile

Advertisement - Login to hide

YMML

Details ICAO YMML (MEL)
Name Melbourne Intl
Region Australia
Timezone Australia/Melbourne (UTC+11.0)
Stats Elevation 433 ft / 132 m (AMSL)
Location -37.665301° 144.836668°
Runways 2
Magnetic Variation 11.504° E

METAR

YMML 170200Z 16009KT 9999 FEW040 SCT240 23/13 Q1016 NOSIG

Decode

TAF

TAF YMML 162303Z 1700/1806 17014KT CAVOK FM170800 20012KT CAVOK FM171200 24006KT CAVOK FM171600 01005KT CAVOK FM180300 18008KT CAVOK

Decode

Departure Runways

ID Width Length Bearing (true) Bearing (mag) Surface Threshold Offset Overrun Length
09 148 ft / 45 m 7,494 ft / 2,284 m 94.01° 82.51° Asphalt 0 ft / 0 m 0 ft / 0 m
16 148 ft / 45 m 12,008 ft / 3,660 m 171.02° 159.52° Asphalt 98 ft / 30 m 0 ft / 0 m
27 148 ft / 45 m 7,494 ft / 2,284 m 274.00° 262.50° Asphalt 0 ft / 0 m 0 ft / 0 m
34 148 ft / 45 m 12,008 ft / 3,660 m 351.01° 339.51° Asphalt 98 ft / 30 m 0 ft / 0 m

YMEN

Details ICAO YMEN (MEB)
Name Essendon
Region Australia
Timezone Australia/Melbourne (UTC+11.0)
Stats Elevation 281 ft / 86 m (AMSL)
Location -37.728692° 144.902400°
Runways 2
Magnetic Variation 11.556° E

METAR

YMEN 170200Z AUTO 19010KT 160V230 9999 // NCD 24/15 Q1016

Decode

TAF

Not found

Destination Runways

ID Width Length Bearing (true) Bearing (mag) Surface Threshold Offset Overrun Length
08 164 ft / 50 m 6,293 ft / 1,918 m 88.02° 76.46° Asphalt 0 ft / 0 m 0 ft / 0 m
17 148 ft / 45 m 4,364 ft / 1,330 m 177.90° 166.34° Asphalt 0 ft / 0 m 0 ft / 0 m
26 164 ft / 50 m 6,293 ft / 1,918 m 268.01° 256.45° Asphalt 0 ft / 0 m 0 ft / 0 m
35 148 ft / 45 m 4,364 ft / 1,330 m 357.90° 346.34° Asphalt 0 ft / 0 m 863 ft / 263 m

Approach Navaids

Runway Type Ident Frequency Range Bearing (true) Bearing (mag) Slope Elevation
26 Localiser IEN 109.90 MHz 18 nm / 33 km 268.06° 256.51° - 282 ft / 86 m (AMSL)
26 Glidescope IEN 109.90 MHz 10 nm / 19 km 268.01° 256.46° 3.00° 282 ft / 86 m (AMSL)
26 DME IEN 109.90 MHz 18 nm / 33 km - - - 282 ft / 86 m (AMSL)

Popular Alternatives